Weather in Uzlovoe

Ukraine / Lviv District     50°13′28″N   24°32′57″E
temp.,
°C
wind,
m/s
gust,
m/s
humid.,
%
clouds,
%
prec.,
mm/h
press.,
hPa
HPBL,
m
27 september, mon
mon2700:00+11ene347881 0.0 102366
03:00+9e358375 0.0 102382
06:00+9e3689100 0.0 1023114
09:00+10e58835 0.0 1023268
12:00+14e566211 0.0 1023715
15:00+16e55515 0.0 1022996
18:00+14ene58615 0.0 1022384
21:00+10e511735 0.0 1023243
28 september, tue
tue2800:00+8e512794 0.0 1023275
03:00+7e511870 0.0 1024235
06:00+5e49910 0.0 1024173
09:00+8e510810 0.0 1025309
12:00+13ese67600 0.0 1025939
15:00+15e565213 0.0 10251403
18:00+14e48615 0.0 1025331
21:00+9e5127515 0.0 1027294
29 september, wed
wed2900:00+8e4128117 0.0 1028237
03:00+7e4118067 0.0 1028219
06:00+6e4118024 0.0 1028209
09:00+9ese512705 0.0 1028382
12:00+14se795113 0.0 10281226
15:00+16se78465 0.0 10261518
18:00+14ese510574 0.0 1026406
21:00+10ese514650 0.0 1027374
30 september, thu
thu3000:00+9se514670 0.0 1028426
03:00+8ese512701 0.0 1028337
06:00+7ese511745 0.0 1028303
09:00+9se5127098 0.0 1028403
12:00+13sse585699 0.0 1028616
15:00+16s455292 0.0 1027839
18:00+15ssw1162100 0.0 102713
21:00+11se2268100 0.0 102825
1 october, fri
fri100:00+10sse3463100 0.0 102955
03:00+9se3467100 0.0 102953
06:00+9se346994 0.0 102967
09:00+10se386756 0.0 1029232
12:00+15sse5858100 0.0 1029813
15:00+17sse674439 0.0 10281208
18:00+15se48535 0.0 1027263
21:00+10ese411575 0.0 1028207